Regional Weather Roundup
Issued by NWS

Home | Current Version | Previous Version | Text Only | Print | Product List | Glossary On
Versions: 1 2 3 4 5 6 7 8 9 10 11 12 13 14 15 16 17 18 19 20 21 22 23 24 25 26 27 28 29 30 31 32 33 34 35 36 37 38 39 40 41 42 43 44 45 46 47 48 49 50
000
ASUS43 KFSD 300902
RWRSD

WEATHER ROUNDUP FOR SOUTH DAKOTA
NATIONAL WEATHER SERVICE SIOUX FALLS SD
400 AM CDT SAT APR 30 2016

NOTE: "FAIR" INDICATES FEW OR NO CLOUDS BELOW 12,000 FEET WITH NO
SIGNIFICANT WEATHER AND/OR OBSTRUCTIONS TO VISIBILITY.


SDZ001>005-009-010-012>017-301000-
NORTHWEST AND NORTH CENTRAL SOUTH DAKOTA

CITY           SKY/WX    TMP DP  RH WIND       PRES   REMARKS
BUFFALO          N/A     40  34  79 N6        30.01S
FAITH            N/A     40  36  86 N5        30.06S
MOBRIDGE       PTCLDY    39  37  92 N5        30.06R
$$

SDZ012>016-024>037-041>051-057-063-072>074-301000-
SOUTHWEST AND SOUTH CENTRAL SOUTH DAKOTA

CITY           SKY/WX    TMP DP  RH WIND       PRES   REMARKS
RAPID CTY ARPT CLOUDY    40  37  89 N10       30.02F
PIERRE         PTCLDY    40  37  89 N12       30.00F
CUSTER         CLOUDY    32  29  88 NE17G30   29.95S WCI  21
ELLSWORTH AFB  CLOUDY    41  39  95 N10       30.02F
PHILIP         CLOUDY    41  37  86 NE10      30.01F
PINE RIDGE     LGT RAIN  37  34  89 NE9       29.95F
WINNER         CLOUDY    44  39  82 NE9       29.94F
$$

SDZ004>011-016>023-039-040-301000-
NORTHEAST SOUTH DAKOTA

CITY           SKY/WX    TMP DP  RH WIND       PRES   REMARKS
ABERDEEN       PTCLDY    39  36  89 N8        30.07F
WATERTOWN      PTCLDY    40  35  83 NE9       30.03F
BROOKINGS      MOCLDY    39  36  89 NE8       30.00F
SISSETON         N/A     41  34  76 E5        30.10S
$$

SDZ017-020-022-023-036>040-048>070-301000-
SOUTHEAST SOUTH DAKOTA

CITY           SKY/WX    TMP DP  RH WIND       PRES   REMARKS
SIOUX FALLS    CLOUDY    43  38  82 NE14      29.97F
HURON          CLOUDY    42  39  89 NE8       30.00F
MITCHELL       MOCLDY    43  41  93 NE9       29.97F
YANKTON        CLOUDY    45  37  76 NE17G23   29.89F
$$

ABBREVIATIONS USED IN REMARKS
   TC - TEMPERATURE IN CELSIUS
  WCI - WIND CHILL INDEX
   HX - HEAT INDEX
  VSB - VISIBILITY





USA.gov is the U.S. government's official web portal to all federal, state and local government web resources and services.